Location: Dimsdale
(55.1333°N, 118.9833°W)
Time: 09:25:52
(UTC+00:00)

SO-50 - Pass Details

Date: 08 December 2023
Orbit: 608 x 660 km, 64.6° (Epoch: 02 March)

Event Time Altitude Azimuth Distance (km) Brightness Sun altitude
Exits shadow 14:09:23 22° 319° (NW) 1,417 ? -15.5°
Maximum altitude 14:10:58 27° 351° (N) 1,253 ? -15.3°
Drops below altitude 10° 14:14:52 10° 49° (NE) 2,026 ? -14.8°
Sets 14:17:27 0° 62° (ENE) 2,924 ? -14.4°
